Location: *
(51.8167°N, 12.5000°E)
Time: 23:41:12
(UTC+00:00)

Cosmos 2100 Rocket - Pass Details

Date: 16 September 2019
Orbit: 956 x 1001 km, 82.9° (Epoch: 14 October)

Event Time Altitude Azimuth Distance (km) Brightness Sun altitude
Rises 21:44:11 0° 350° (N) 3,737 8.1 -33.1°
Reaches altitude 10° 21:46:46 10° 354° (N) 2,780 7.1 -33.2°
Enters shadow 21:51:55 55° 25° (NNE) 1,186 4.5 -33.5°
